Regional Weather Roundup
Issued by NWS

Home | Current Version | Previous Version | Graphics & Text | Print | Product List | Glossary On
Versions: 1 2 3 4 5 6 7 8 9 10 11 12 13 14 15 16 17 18 19 20 21 22 23 24 25 26 27 28 29 30 31 32 33 34 35 36 37 38 39 40 41 42 43 44 45 46 47 48 49 50
000
ASUS43 KDTX 261710
RWRMI
MICHIGAN HOURLY REGIONAL WEATHER ROUNDUP
NATIONAL WEATHER SERVICE DETROIT/PONTIAC MI
100 PM EDT THU MAR 26 2015

NOTE: "FAIR" INDICATES FEW OR NO CLOUDS BELOW 12,000 FEET WITH NO
SIGNIFICANT WEATHER AND/OR OBSTRUCTION TO VISIBILITY.

MIZ047>049-052>055-059>063-066>070-074>076-081>083-261800-
SOUTHEAST LOWER MICHIGAN

CITY           SKY/WX    TMP DP  RH WIND       PRES   REMARKS
ADRIAN         CLOUDY    40  29  64 NW8       29.87F WCI  34
ALMA           CLOUDY    39  26  58 W9        29.87S WCI  33
ANN ARBOR      CLOUDY    40  28  62 NW10      29.86F WCI  33
BAD AXE        CLOUDY    38  28  67 NW14      29.83S WCI  30
CARO           CLOUDY    40  29  65 NW12      29.84S WCI  32
DETROIT CITY   CLOUDY    43  30  60 W7        29.85F
DETROIT        CLOUDY    43  31  62 W10       29.86F
FLINT          CLOUDY    41  27  57 NW14      29.85F
GROSSE ILE     CLOUDY    41  34  75 W6        29.84F
HILLSDALE      CLOUDY    40  28  64 NW10G18   29.86F WCI  33
HOWELL         CLOUDY    40  27  61 W10       29.85F WCI  33

CITY           SKY/WX    TMP DP  RH WIND       PRES   REMARKS
JACKSON        CLOUDY    39  25  57 NW13      29.86F WCI  31
LAMBERTVILLE   CLOUDY    41  34  75 NW7       29.87F
LANSING        CLOUDY    40  25  55 W13       29.88F WCI  32
LAPEER         CLOUDY    39  27  61 W8        29.84S WCI  34
MASON          CLOUDY    39  25  58 NW7       29.86F WCI  34
MONROE         CLOUDY    41  34  75 W9        29.85F
MT. CLEMENS    CLOUDY    42  30  63 W7        29.82F
PONTIAC        CLOUDY    39  27  62 W12       29.83F WCI  32
PORT HOPE        N/A     39  28  64 W13G21    29.81S WCI  31
PORT HURON     CLOUDY    39  30  70 W7        29.84S WCI  34
TRI CITIES     CLOUDY    40  25  55 W12       29.86S WCI  33
TROY           CLOUDY    41  29  61 W7        29.86F
SAGINAW HB     CLOUDY    41  27  56 W13G18    29.85S
$$
MIZ043>046-050>051-056>058-064>065-071>073-077>080-261800-
SOUTHWEST LOWER MICHIGAN

CITY           SKY/WX    TMP DP  RH WIND       PRES   REMARKS
BATTLE CREEK   CLOUDY    39  25  57 NW15G22   29.90F WCI  31
BENTON HARBOR  CLOUDY    38  26  62 W14G20    29.95F WCI  30
BIG RAPIDS     CLOUDY    37  25  62 W9G20     29.86S WCI  30
COLDWATER      CLOUDY    39  25  56 NW12      29.89F WCI  32
FREMONT        CLOUDY    37  21  51 NW14G21   29.90R WCI  29
HOLLAND        CLOUDY    39  28  64 W15G21    29.94S WCI  31
GRAND RAPIDS   CLOUDY    39  25  57 NW16      29.90S WCI  30
IONIA          CLOUDY    40  26  57 NW12      29.87F WCI  32
KALAMAZOO      CLOUDY    41  23  48 W15       29.91F
LUDINGTON      CLOUDY    36  26  68 NW13      29.92S WCI  27
MARSHALL       CLOUDY    38  25  58 NW12      29.88S WCI  31
MOUNT PLEASANT CLOUDY    38  23  54 W9        29.86S WCI  32
MUSKEGON       CLOUDY    38  26  62 W18G25    29.92F WCI  28
SOUTH HAVEN    CLOUDY    39  26  59 NW14      29.94S WCI  31
$$
MIZ016>042-261800-
NORTHERN LOWER MICHIGAN

CITY           SKY/WX    TMP DP  RH WIND       PRES   REMARKS
ALPENA         CLOUDY    40  25  55 W9        29.79F WCI  34
BEAVER ISLAND  CLOUDY    29  24  81 NW14G25   29.86R WCI  18
BELLAIRE       FLURRIES  33  27  79 W8G20     29.87R WCI  26
CADILLAC       CLOUDY    34  26  70 W10       29.83S WCI  26
CHARLEVOIX     LGT SNOW  31  29  92 W18G25    29.89R VSB 1   WCI  19
FRANKFORT      FLURRIES  36  23  59 N16G22    29.90S WCI  26
GAYLORD        CLOUDY    31  27  85 W10       29.80S WCI  22
GRAYLING       CLOUDY    34  27  75 W13G18    29.82F WCI  25
HARBOR SPRINGS LGT SNOW  33  30  91 W6        29.83S WCI  27
HOUGHTON LAKE  CLOUDY    35  25  66 W9        29.83F WCI  28
MANISTEE       CLOUDY    34  23  64 N9G16     29.91S WCI  26
OSCODA         CLOUDY    39  26  59 W9        29.81F WCI  33
PELLSTON       LGT SNOW  34  31  88 W10       29.82S FOG     WCI  26
ROGERS CITY    CLOUDY    38  31  78 W13G18    29.80S WCI  30
TRAVERSE CITY  FLURRIES  36  25  64 NW13      29.87R WCI  27
$$
MIZ007>008-015-261800-
EASTERN UPPER MICHIGAN

CITY           SKY/WX    TMP DP  RH WIND       PRES   REMARKS
KINROSS        CLOUDY    34  30  86 NW15      29.78S WCI  24
MACKINAC ISLAN LGT SNOW  33  32  96 W14       29.80S WCI  23
NEWBERRY       CLOUDY    28  23  81 NW15G22   29.84R WCI  16
S. S. MARIE    LGT SNOW  32  28  85 W10       29.78S VSB 1   WCI  24
MUNISING         N/A     23  13  65 N20G29    29.96R WCI   8
$$
MIZ004>006-011>014-085-261800-
CENTRAL UPPER MICHIGAN

CITY           SKY/WX    TMP DP  RH WIND       PRES   REMARKS
MANISTIQUE     CLOUDY    28  20  73 NW16G26   29.89R WCI  16
ESCANABA       CLOUDY    28  16  59 N13G22    29.94R WCI  18
MENOMINEE      CLOUDY    30  18  59 N14G21    29.94S WCI  20
SAWYER-GWINN   LGT SNOW  21  14  73 N16G24    29.93R WCI   7
$$
MIZ001>003-009>011-084-261800-
WESTERN UPPER MICHIGAN

CITY           SKY/WX    TMP DP  RH WIND       PRES   REMARKS
IRON MOUNTAIN  CLOUDY    25  13  60 N22       29.94R WCI  10
HOUGHTON       LGT SNOW  17   9  70 N15G26    30.02S WCI   2
COPPER HARBOR    N/A     18  10  71 NE16G26   30.03R WCI   3
IRONWOOD       CLOUDY    19  14  79 NW16      30.03S WCI   5
$$

ABBREVIATIONS USED IN REMARKS
   TC - TEMPERATURE IN CELSIUS
  WCI - WIND CHILL INDEX
   HX - HEAT INDEX
  VSB - VISIBILITY



USA.gov is the U.S. government's official web portal to all federal, state and local government web resources and services.